Wind_Speed
6 6 6 7 7 8 8 9 9 9 10 10 11 11 10 10 10 10 10 9 9 9 9 9 9 9 9 9 8 8 8 8 8 8 8 8 8 9 8 8 9 9 9
7 7 6 7 8 9 9 9 9 9 10 10 11 11 10 10 10 10 9 10 9 9 8 8 9 9 8 8 8 8 8 8 8 8 8 8 9 9 9 9 9 9 9
7 7 6 7 8 9 9 10 10 10 10 10 10 10 10 10 9 10 10 9 9 8 8 8 8 8 8 7 7 7 7 7 7 7 8 8 8 8 9 8 8 8 8
6 6 7 6 8 9 9 10 10 10 10 10 10 10 10 9 10 10 10 9 8 8 8 7 7 7 7 7 6 6 7 7 7 7 7 7 7 7 7 7 7 7 7
6 7 7 7 8 9 10 10 10 10 10 10 10 9 9 10 10 10 9 8 8 8 7 7 7 6 6 6 6 6 6 6 6 6 6 6 7 7 7 7 6 6 6
7 7 8 8 9 9 10 9 10 10 10 10 9 9 9 9 9 8 8 8 8 7 7 7 6 6 5 5 5 5 5 5 5 5 5 6 6 6 6 6 5 5 5
7 8 8 8 9 10 10 9 9 9 9 9 9 9 8 8 8 7 7 7 7 7 6 6 5 5 4 4 4 4 4 3 4 4 4 5 5 5 5 4 4 3 3
7 8 8 8 8 10 9 9 9 9 9 8 8 9 8 8 7 7 7 7 6 6 6 5 5 4 3 2 3 3 3 3 3 3 3 3 4 4 3 3 3 3 2
8 8 8 8 8 9 8 8 8 8 8 9 8 8 8 8 7 6 6 6 6 5 5 4 4 3 2 2 2 2 2 2 3 3 3 3 3 3 3 3 3 3 2
8 8 8 8 9 8 8 8 7 8 8 8 8 8 8 7 6 6 6 6 5 5 4 4 3 2 2 1 1 1 2 2 2 3 2 2 3 3 3 3 3 3 3
9 9 9 9 9 8 8 7 7 8 8 8 8 7 7 6 6 6 5 5 5 4 4 3 2 2 2 1 1 1 1 2 3 3 3 3 3 4 4 4 4 4 4
10 9 9 9 9 8 7 7 7 7 7 7 7 6 6 6 6 6 5 4 3 3 3 3 2 2 2 2 2 1 1 2 3 3 3 3 3 4 4 4 4 4 4
10 10 9 9 8 8 8 7 6 6 6 7 7 6 6 6 5 5 4 4 3 2 2 2 2 2 2 2 1 2 2 2 2 3 3 3 4 4 4 5 5 5 5
11 10 9 9 9 8 8 7 6 6 7 7 6 6 5 5 4 4 4 4 4 3 3 2 2 2 2 2 2 2 2 2 2 3 3 4 4 4 5 5 5 6 6
11 11 10 9 9 8 7 7 6 6 7 7 6 6 5 4 3 3 4 4 3 3 3 3 3 2 3 3 3 3 3 3 3 3 3 4 5 5 6 7 7 7 7
11 11 10 9 9 8 7 7 6 6 7 6 6 5 4 3 3 3 3 3 3 3 3 4 4 3 3 3 3 3 3 3 4 4 4 5 6 7 7 8 8 8 8
11 11 11 10 9 8 7 7 7 6 6 6 5 5 4 4 4 2 2 2 3 3 4 4 4 4 3 3 3 3 3 4 5 5 6 6 7 8 8 8 8 8 9
10 10 10 10 9 9 8 7 7 7 6 5 5 4 4 3 3 2 1 2 2 3 3 4 3 4 4 4 4 4 4 5 5 5 6 7 7 7 8 8 8 9 9
9 9 9 9 9 9 8 7 6 6 5 5 4 4 3 2 2 0 1 2 2 3 4 4 4 5 5 5 5 5 5 5 5 6 6 7 7 8 8 9 9 9 10
7 7 8 8 8 7 7 6 5 5 5 5 3 3 2 1 0 1 1 2 2 3 4 5 5 5 5 5 5 6 6 6 7 7 7 8 8 9 9 9 10 10 10
5 6 6 7 7 6 6 5 4 4 4 3 2 1 1 1 1 1 2 2 2 3 3 4 5 5 6 6 6 6 7 8 8 9 9 9 9 9 10 10 10 10 11
3 4 5 6 6 5 5 4 4 3 3 3 2 1 1 1 2 2 3 4 4 4 4 5 6 6 6 7 7 7 8 9 9 10 10 10 10 10 11 11 10 10 11
3 3 4 4 4 4 4 4 4 3 3 2 2 2 2 3 3 4 4 5 6 6 6 6 7 7 8 8 8 9 9 9 10 10 11 12 12 12 12 12 11 11 12
2 2 2 2 3 2 2 2 2 3 3 3 3 3 4 4 5 6 6 6 7 7 7 7 7 8 8 8 9 9 9 10 10 10 10 11 11 11 11 11 11 12 13
4 4 3 3 3 3 3 3 3 3 4 4 5 5 6 7 8 8 8 8 8 8 8 9 9 9 9 9 9 10 10 10 10 11 11 11 12 12 12 12 12 13 13
6 6 6 5 6 6 6 6 6 6 6 6 6 7 8 9 10 10 10 10 10 10 10 10 10 10 11 11 11 11 12 12 12 12 12 12 13 13 13 13 13 14 14
Wind_Direction
101 106 112 119 120 127 132 131 134 131 128 127 127 128 124 123 123 126 126 126 124 124 129 125 121 118 114 111 109 109 110 112 111 108 107 107 109 113 112 111 112 109 106
106 110 118 121 124 127 127 129 133 130 126 124 129 131 126 126 127 129 126 124 125 124 123 124 122 118 113 110 109 109 109 111 110 109 109 108 109 112 114 114 114 110 109
105 111 120 125 123 124 125 126 130 127 125 126 130 130 127 128 130 128 125 122 124 125 123 117 116 116 114 112 111 111 109 111 113 113 114 113 112 114 117 118 115 111 108
109 115 115 124 125 126 128 129 135 131 129 128 129 130 129 129 128 128 127 126 126 127 125 120 117 116 116 116 116 116 114 115 115 115 116 117 117 119 122 122 117 114 112
108 108 107 109 121 127 130 130 132 132 130 127 126 131 133 132 129 130 131 130 129 126 123 121 119 119 116 118 120 120 117 117 117 116 117 119 121 121 122 124 122 119 116
102 109 109 110 119 127 129 130 133 129 127 127 129 132 132 131 131 131 137 135 134 129 123 126 124 123 113 115 117 120 123 122 124 123 124 127 128 130 130 128 127 124 121
103 110 110 112 120 127 130 130 135 133 131 128 129 132 132 134 136 137 141 141 137 133 131 129 129 131 128 120 118 127 134 138 140 140 138 134 140 141 140 137 134 132 129
95 107 108 107 115 125 128 127 131 135 138 138 135 134 133 137 135 135 140 144 141 140 138 137 132 129 126 126 123 128 138 151 162 156 150 151 157 162 163 159 150 149 155
88 99 105 106 113 122 123 126 132 137 141 143 141 136 134 136 136 139 139 145 150 150 150 146 140 136 136 130 134 147 153 163 172 170 168 177 181 182 190 195 190 190 188
88 98 103 107 111 120 125 128 135 139 138 141 144 141 140 138 141 149 150 151 156 164 168 161 149 151 154 150 150 159 177 190 189 184 183 192 201 200 206 209 209 221 219
82 94 104 107 110 116 123 127 132 137 142 142 143 146 148 146 145 151 158 159 165 172 178 178 179 186 179 178 177 191 200 214 210 207 209 203 207 210 215 222 228 235 236
79 86 97 103 105 110 117 124 129 136 144 146 148 146 149 151 150 150 158 161 164 174 177 175 186 200 193 189 190 222 232 231 223 224 229 223 221 219 221 230 235 239 242
71 80 87 92 99 106 113 115 121 131 142 147 152 155 155 157 157 158 167 170 174 183 190 181 184 188 195 189 211 241 254 257 245 232 242 242 239 237 236 242 250 255 253
64 71 79 85 91 103 107 109 115 126 134 140 146 156 162 166 166 172 180 187 195 203 209 210 204 215 222 226 238 255 261 267 264 257 254 256 254 255 255 255 258 262 263
62 66 70 77 88 97 104 110 115 120 131 133 141 153 159 165 167 168 183 188 198 207 209 210 210 222 236 244 254 260 258 260 265 269 265 266 264 265 265 264 262 265 267
61 64 68 73 79 90 101 106 112 118 127 131 135 144 152 154 151 152 163 182 204 206 208 216 213 217 235 252 259 258 259 265 271 274 268 266 268 272 274 272 270 268 268
61 64 68 71 76 83 91 98 102 112 117 120 129 136 142 140 137 143 167 194 218 219 218 221 226 230 239 252 256 255 261 267 272 269 269 269 271 274 274 275 272 271 273
62 66 68 72 78 82 87 92 97 105 109 115 121 126 124 125 133 138 186 225 242 239 232 227 243 251 251 256 248 249 257 263 271 269 269 271 273 277 279 277 274 273 273
62 66 71 74 79 84 88 91 92 97 102 106 111 117 119 116 124 178 261 267 256 249 247 240 251 254 259 257 249 248 257 262 266 269 272 272 274 278 280 278 277 272 272
59 64 69 72 77 84 86 90 91 91 89 93 99 99 104 103 123 291 273 266 266 260 257 252 259 267 274 272 262 256 261 264 265 269 272 276 280 279 281 281 279 276 273
54 61 66 72 70 77 80 80 82 76 75 74 81 74 79 13 2 333 318 298 285 287 282 273 274 280 282 279 273 268 267 269 271 271 271 275 280 283 284 282 282 277 275
45 56 60 68 62 63 64 62 65 60 56 51 47 38 351 321 319 307 298 298 294 289 288 285 281 277 281 279 278 277 274 278 276 272 273 276 280 284 284 283 282 281 281
10 35 45 45 43 51 53 50 46 40 31 16 355 338 323 309 307 305 297 295 294 290 292 293 290 279 278 276 276 279 281 284 281 277 279 277 279 282 283 282 282 282 282
302 318 332 346 358 3 5 6 8 8 1 345 328 317 316 311 306 300 296 293 293 292 291 292 292 289 282 281 280 280 283 284 284 284 283 283 282 282 281 280 280 281 282
263 280 288 295 304 311 318 321 319 321 327 324 312 303 302 303 303 301 296 293 288 286 286 288 290 290 288 286 283 283 282 284 284 284 283 284 281 279 279 280 280 280 279
259 266 264 277 283 288 292 296 298 296 300 303 301 296 294 295 295 295 292 287 286 283 283 285 288 287 285 285 284 285 285 286 285 286 282 282 282 279 277 277 277 280 280
Height
5866 5865 5865 5866 5866 5867 5868 5869 5870 5871 5872 5873 5875 5876 5877 5878 5879 5881 5883 5884 5885 5886 5887 5888 5888 5889 5890 5891 5891 5892 5892 5893 5893 5893 5894 5894 5895 5895 5896 5896 5897 5897 5898
5866 5866 5866 5867 5867 5868 5868 5870 5871 5872 5873 5875 5876 5877 5878 5880 5881 5882 5884 5885 5886 5887 5888 5889 5890 5890 5891 5892 5893 5893 5894 5894 5894 5895 5895 5896 5896 5896 5897 5898 5898 5899 5899
5867 5867 5867 5867 5868 5869 5870 5871 5872 5873 5875 5876 5877 5879 5880 5881 5883 5884 5885 5886 5887 5889 5890 5891 5891 5892 5892 5893 5894 5894 5895 5895 5896 5896 5896 5897 5897 5898 5898 5899 5900 5900 5901
5868 5868 5868 5868 5869 5870 5871 5872 5874 5875 5876 5877 5879 5880 5881 5883 5884 5885 5887 5888 5889 5890 5891 5892 5892 5893 5894 5894 5895 5896 5896 5896 5897 5897 5898 5898 5898 5899 5899 5900 5901 5901 5902
5869 5869 5869 5869 5870 5871 5872 5873 5875 5876 5877 5879 5880 5881 5883 5884 5885 5887 5888 5889 5890 5891 5892 5893 5894 5894 5895 5895 5896 5897 5897 5898 5898 5898 5899 5899 5899 5900 5900 5901 5902 5902 5903
5870 5870 5870 5871 5871 5872 5873 5875 5876 5877 5878 5880 5881 5883 5884 5885 5886 5888 5889 5890 5891 5892 5893 5894 5895 5896 5896 5897 5897 5897 5898 5898 5899 5899 5900 5900 5900 5901 5901 5902 5903 5903 5903
5871 5871 5871 5872 5872 5873 5874 5876 5877 5878 5879 5881 5882 5884 5885 5886 5888 5889 5890 5891 5892 5893 5894 5895 5895 5896 5897 5897 5898 5898 5899 5899 5900 5900 5900 5901 5901 5902 5902 5903 5903 5904 5904
5873 5872 5873 5873 5874 5875 5876 5877 5878 5879 5880 5882 5883 5885 5886 5887 5888 5889 5890 5891 5893 5894 5895 5895 5896 5897 5898 5898 5898 5899 5899 5899 5900 5901 5901 5901 5902 5902 5903 5903 5903 5904 5904
5874 5874 5874 5874 5875 5876 5877 5878 5879 5880 5881 5882 5884 5885 5887 5888 5889 5890 5891 5892 5893 5894 5895 5896 5897 5898 5898 5899 5899 5899 5899 5900 5900 5901 5901 5901 5902 5902 5903 5903 5904 5904 5904
5875 5875 5875 5876 5876 5877 5878 5879 5880 5881 5882 5883 5885 5886 5888 5889 5890 5891 5892 5893 5894 5895 5896 5897 5897 5898 5899 5899 5899 5899 5900 5900 5900 5901 5901 5901 5902 5902 5903 5903 5904 5904 5904
5877 5877 5877 5877 5877 5878 5879 5880 5880 5881 5882 5884 5885 5887 5888 5889 5890 5891 5892 5893 5894 5895 5896 5897 5897 5898 5899 5899 5899 5899 5900 5900 5900 5900 5901 5901 5901 5902 5902 5903 5903 5904 5904
5878 5878 5878 5878 5879 5879 5880 5880 5881 5882 5883 5885 5886 5888 5889 5890 5891 5892 5893 5894 5895 5895 5896 5897 5897 5898 5898 5899 5899 5899 5899 5900 5900 5900 5901 5901 5901 5902 5902 5903 5903 5903 5903
5880 5880 5879 5879 5880 5880 5881 5881 5882 5883 5884 5885 5887 5888 5889 5890 5891 5892 5893 5894 5895 5895 5896 5897 5897 5898 5898 5898 5899 5899 5899 5900 5900 5900 5901 5901 5901 5901 5902 5902 5902 5903 5903
5882 5881 5881 5881 5881 5881 5882 5882 5883 5883 5885 5886 5887 5888 5889 5890 5891 5892 5893 5894 5894 5895 5896 5897 5897 5897 5898 5898 5898 5899 5899 5899 5900 5900 5900 5900 5901 5901 5901 5901 5901 5902 5902
5884 5883 5883 5882 5882 5883 5883 5883 5884 5884 5886 5887 5888 5889 5889 5890 5891 5892 5892 5893 5894 5895 5896 5896 5896 5897 5897 5898 5898 5898 5899 5899 5899 5900 5900 5900 5900 5900 5900 5900 5900 5900 5900
5886 5885 5884 5884 5884 5884 5884 5885 5885 5886 5886 5887 5888 5889 5890 5891 5891 5892 5892 5893 5893 5894 5895 5895 5896 5896 5896 5897 5897 5897 5898 5898 5899 5899 5899 5899 5899 5899 5899 5899 5899 5899 5899
5888 5887 5886 5886 5886 5886 5886 5886 5886 5887 5887 5888 5889 5889 5890 5891 5891 5892 5892 5893 5893 5893 5894 5894 5895 5895 5895 5896 5896 5897 5897 5897 5897 5898 5898 5898 5898 5898 5898 5898 5897 5897 5897
5890 5889 5888 5888 5888 5888 5888 5888 5888 5888 5889 5889 5889 5890 5891 5891 5891 5892 5892 5892 5892 5893 5893 5893 5894 5894 5894 5895 5895 5895 5896 5896 5896 5896 5896 5897 5897 5896 5896 5896 5896 5896 5896
5892 5891 5890 5890 5889 5889 5889 5889 5890 5890 5890 5890 5890 5891 5891 5891 5891 5892 5892 5892 5892 5892 5892 5892 5893 5893 5893 5893 5893 5894 5894 5895 5895 5895 5895 5895 5895 5895 5895 5894 5894 5894 5894
5893 5893 5892 5891 5891 5890 5890 5890 5891 5891 5891 5891 5891 5891 5892 5892 5892 5892 5892 5892 5892 5891 5891 5891 5891 5891 5892 5892 5892 5893 5893 5893 5893 5894 5894 5893 5893 5893 5893 5892 5892 5892 5892
5894 5894 5893 5893 5892 5892 5891 5891 5891 5891 5892 5892 5892 5892 5892 5892 5892 5892 5891 5891 5891 5891 5890 5890 5890 5890 5891 5890 5891 5892 5892 5892 5892 5892 5892 5892 5892 5891 5891 5890 5890 5890 5890
5894 5894 5894 5894 5893 5893 5893 5892 5892 5892 5892 5893 5892 5892 5892 5892 5891 5891 5891 5891 5891 5890 5890 5890 5889 5889 5889 5889 5890 5890 5890 5891 5890 5890 5890 5890 5889 5889 5888 5888 5888 5887 5887
5893 5894 5894 5894 5894 5894 5893 5893 5893 5893 5893 5893 5893 5892 5892 5892 5891 5891 5890 5890 5890 5889 5889 5889 5888 5888 5888 5888 5888 5889 5888 5888 5887 5888 5887 5887 5887 5887 5886 5886 5885 5885 5885
5894 5894 5893 5893 5894 5893 5893 5893 5893 5892 5892 5892 5892 5892 5892 5891 5891 5890 5890 5889 5889 5888 5888 5887 5887 5886 5886 5886 5886 5886 5886 5886 5885 5885 5885 5884 5884 5884 5883 5883 5883 5882 5882
5892 5892 5892 5892 5893 5893 5893 5893 5892 5892 5892 5891 5891 5891 5891 5890 5890 5889 5888 5888 5887 5887 5886 5886 5885 5885 5884 5884 5884 5884 5884 5883 5883 5882 5882 5882 5881 5881 5880 5880 5880 5879 5879
5890 5891 5891 5891 5891 5891 5891 5891 5891 5890 5890 5890 5890 5890 5889 5889 5888 5887 5886 5886 5885 5884 5884 5883 5883 5883 5882 5882 5882 5881 5881 5881 5880 5879 5879 5878 5878 5878 5877 5877 5876 5876 5875